Location: Fort Wayne
(41.1310°N, 85.1290°W)
Time: 21:22:53
(UTC-04:00)

Meteor 2-10 Rocket - Visible Passes

Search period start: 01 May 2016 00:00
Search period end: 11 May 2016 00:00
Orbit: 734 x 885 km, 81.2° (Epoch: 30 April)

Date Brightness Start Highest point End Pass type
(mag) Time Alt. Az. Time Alt. Az. Time Alt. Az.
01 May 4.7 21:04:47 10° SE 21:09:32 27° E 21:14:10 10° NNE visible
01 May 5.0 22:46:02 10° SW 22:51:22 39° WNW 22:56:36 10° N visible
02 May 4.4 22:21:27 10° SSW 22:27:03 54° WNW 22:32:31 10° N visible
03 May 3.9 21:57:03 10° SSW 22:02:47 76° W 22:08:21 10° N visible
04 May 3.7 21:32:49 10° S 21:38:33 79° E 21:44:05 10° NNE visible
04 May 6.5 23:18:17 10° W 23:21:13 14° WNW 23:24:05 10° NNW visible
05 May 3.8 21:08:47 10° S 21:14:21 57° E 21:19:44 10° NNE visible
05 May 6.2 22:52:45 10° WSW 22:56:44 19° WNW 23:00:39 10° NNW visible
06 May 5.8 22:27:38 10° SW 22:32:19 26° WNW 22:36:54 10° NNW visible
07 May 5.3 22:02:46 10° SW 22:07:57 36° WNW 22:12:58 10° N visible
08 May 4.7 21:38:10 10° SSW 21:43:37 49° WNW 21:48:54 10° N visible
09 May 4.1 21:13:43 10° SSW 21:19:19 69° W 21:24:45 10° N visible
10 May 6.7 22:35:29 10° W 22:37:47 13° WNW 22:40:04 10° NW visible
